Date,TemperatureHighF,TemperatureAvgF,TemperatureLowF,DewpointHighF,DewpointAvgF,DewpointLowF,HumidityHigh,HumidityAvg,HumidityLow,PressureMaxIn,PressureMinIn,WindSpeedMaxMPH,WindSpeedAvgMPH,GustSpeedMaxMPH,PrecipitationSumIn
2013-1-1,27,24,18,-100,-100,-100,0,0,100,0.00,40.00,0,-999,0,0.00
2013-1-2,29,16,8,-100,-100,-100,0,0,100,0.00,40.00,0,-999,0,0.00
2013-1-3,49,24,11,-100,-100,-100,0,0,100,0.00,40.00,0,-999,0,0.00
2013-1-4,54,28,15,-100,-100,-100,0,0,100,0.00,40.00,0,-999,0,0.00
2013-1-5,40,30,17,-100,-100,-100,0,0,100,0.00,40.00,0,-999,0,0.00
2013-1-6,33,29,17,-100,-100,-100,0,0,100,0.00,40.00,0,-999,0,0.00
2013-1-7,49,25,13,-100,-100,-100,0,0,100,0.00,40.00,0,-999,0,0.00
2013-1-8,62,35,17,-100,-100,-100,0,0,100,0.00,40.00,0,-999,0,0.00
2013-1-9,62,45,35,-100,-100,-100,0,0,100,0.00,40.00,0,-999,0,0.00
2013-1-10,57,43,35,-100,-100,-100,0,0,100,0.00,40.00,0,-999,0,0.00
2013-1-11,70,56,48,-100,-100,-100,0,0,100,0.00,40.00,0,-999,0,0.00
2013-1-12,67,54,49,-100,-100,-100,0,0,100,0.00,40.00,0,-999,0,0.00
2013-1-13,36,25,17,-100,-100,-100,0,0,100,0.00,40.00,0,-999,0,0.00
2013-1-14,22,16,13,-100,-100,-100,0,0,100,0.00,40.00,0,-999,0,0.00
2013-1-15,33,21,13,-100,-100,-100,0,0,100,0.00,40.00,0,-999,0,0.00
2013-1-16,36,28,24,-100,-100,-100,0,0,100,0.00,40.00,0,-999,0,0.00
2013-1-17,44,30,22,-100,-100,-100,0,0,100,0.00,40.00,0,-999,0,0.00
2013-1-18,58,34,15,-100,-100,-100,0,0,100,0.00,40.00,0,-999,0,0.00
2013-1-19,66,42,34,-100,-100,-100,0,0,100,0.00,40.00,0,-999,0,0.00
2013-1-20,51,32,19,-100,-100,-100,0,0,100,0.00,40.00,0,-999,0,0.00
2013-1-21,36,21,11,-100,-100,-100,0,0,100,0.00,40.00,0,-999,0,0.00
2013-1-22,18,13,9,-100,-100,-100,0,0,100,0.00,40.00,0,-999,0,0.00
2013-1-23,56,30,8,-100,-100,-100,0,0,100,0.00,40.00,0,-999,0,0.00
2013-1-24,36,22,12,-100,-100,-100,0,0,100,0.00,40.00,0,-999,0,0.00
2013-1-25,48,29,21,-100,-100,-100,0,0,100,0.00,40.00,0,-999,0,0.00
2013-1-26,52,28,17,-100,-100,-100,0,0,100,0.00,40.00,0,-999,0,0.00
2013-1-27,44,27,17,-100,-100,-100,0,0,100,0.00,40.00,0,-999,0,0.00
2013-1-28,58,52,43,-100,-100,-100,0,0,100,0.00,40.00,0,-999,0,0.00
2013-1-29,68,60,49,-100,-100,-100,0,0,100,0.00,40.00,0,-999,0,0.00
2013-1-30,51,44,26,-100,-100,-100,0,0,100,0.00,40.00,0,-999,0,0.00
2013-1-31,38,26,13,-100,-100,-100,0,0,100,0.00,40.00,0,-999,0,0.00
2013-2-1,39,16,5,-100,-100,-100,0,0,100,0.00,40.00,0,-999,0,0.00
2013-2-2,53,29,20,-100,-100,-100,0,0,100,0.00,40.00,0,-999,0,0.00
2013-2-3,32,24,13,-100,-100,-100,0,0,100,0.00,40.00,0,-999,0,0.00
2013-2-4,46,29,13,-100,-100,-100,0,0,100,0.00,40.00,0,-999,0,0.00
2013-2-5,65,34,20,-100,-100,-100,0,0,100,0.00,40.00,0,-999,0,0.00
2013-2-6,63,34,20,-100,-100,-100,0,0,100,0.00,40.00,0,-999,0,0.00
2013-2-7,77,44,24,-100,-100,-100,0,0,100,0.00,40.00,0,-999,0,0.00
2013-2-8,39,32,27,-100,-100,-100,0,0,100,0.00,40.00,0,-999,0,0.00
2013-2-9,60,37,26,-100,-100,-100,0,0,100,0.00,40.00,0,-999,0,0.00
2013-2-10,51,44,34,-100,-100,-100,0,0,100,0.00,40.00,0,-999,0,0.00
2013-2-11,63,41,27,-100,-100,-100,0,0,100,0.00,40.00,0,-999,0,0.00
2013-2-12,52,40,21,-100,-100,-100,0,0,100,0.00,40.00,0,-999,0,0.00
2013-2-13,63,38,32,-100,-100,-100,0,0,100,0.00,40.00,0,-999,0,0.00
2013-2-14,67,41,31,-100,-100,-100,0,0,100,0.00,40.00,0,-999,0,0.00
2013-2-15,47,35,20,-100,-100,-100,0,0,100,0.00,40.00,0,-999,0,0.00
2013-2-16,44,25,16,-100,-100,-100,0,0,100,0.00,40.00,0,-999,0,0.00
2013-2-17,51,26,12,-100,-100,-100,0,0,100,0.00,40.00,0,-999,0,0.00
2013-2-18,54,41,26,-100,-100,-100,0,0,100,0.00,40.00,0,-999,0,0.00
2013-2-19,46,28,20,-100,-100,-100,0,0,100,0.00,40.00,0,-999,0,0.00
2013-2-20,25,21,15,-100,-100,-100,0,0,100,0.00,40.00,0,-999,0,0.00
2013-2-21,27,22,13,-100,-100,-100,0,0,100,0.00,40.00,0,-999,0,0.00
2013-2-22,36,30,22,-100,-100,-100,0,0,100,0.00,40.00,0,-999,0,0.00
2013-2-23,49,25,18,-100,-100,-100,0,0,100,0.00,40.00,0,-999,0,0.00
2013-2-24,62,29,15,-100,-100,-100,0,0,100,0.00,40.00,0,-999,0,0.00
2013-2-25,51,35,21,-100,-100,-100,0,0,100,0.00,40.00,0,-999,0,0.00
2013-2-26,50,38,32,-100,-100,-100,0,0,100,0.00,40.00,0,-999,0,0.00
2013-2-27,36,31,27,-100,-100,-100,0,0,100,0.00,40.00,0,-999,0,0.00
2013-2-28,31,28,27,-100,-100,-100,0,0,100,0.00,40.00,0,-999,0,0.00
2013-3-1,32,28,25,-100,-100,-100,0,0,100,0.00,40.00,0,-999,0,0.00
2013-3-2,27,25,23,-100,-100,-100,0,0,100,0.00,40.00,0,-999,0,0.00
2013-3-3,52,30,15,-100,-100,-100,0,0,100,0.00,40.00,0,-999,0,0.00
2013-3-4,59,34,28,-100,-100,-100,0,0,100,0.00,40.00,0,-999,0,0.00
2013-3-5,40,34,27,-100,-100,-100,0,0,100,0.00,40.00,0,-999,0,0.00
2013-3-6,36,30,26,-100,-100,-100,0,0,100,0.00,40.00,0,-999,0,0.00
2013-3-7,50,29,18,-100,-100,-100,0,0,100,0.00,40.00,0,-999,0,0.00
2013-3-8,63,34,19,-100,-100,-100,0,0,100,0.00,40.00,0,-999,0,0.00
2013-3-9,69,46,34,-100,-100,-100,0,0,100,0.00,40.00,0,-999,0,0.00
2013-3-10,67,53,44,-100,-100,-100,0,0,100,0.00,40.00,0,-999,0,0.00
2013-3-11,46,37,31,-100,-100,-100,0,0,100,0.00,40.00,0,-999,0,0.00
2013-3-12,54,40,25,-100,-100,-100,0,0,100,0.00,40.00,0,-999,0,0.00
2013-3-13,42,30,20,-100,-100,-100,0,0,100,0.00,40.00,0,-999,0,0.00
2013-3-14,39,26,16,-100,-100,-100,0,0,100,0.00,40.00,0,-999,0,0.00
2013-3-15,70,43,22,-100,-100,-100,0,0,100,0.00,40.00,0,-999,0,0.00
2013-3-16,62,47,35,-100,-100,-100,0,0,100,0.00,40.00,0,-999,0,0.00
2013-3-17,35,31,27,-100,-100,-100,0,0,100,0.00,40.00,0,-999,0,0.00
2013-3-18,44,38,32,-100,-100,-100,0,0,100,0.00,40.00,0,-999,0,0.00
2013-3-19,56,39,25,-100,-100,-100,0,0,100,0.00,40.00,0,-999,0,0.00
2013-3-20,42,30,22,-100,-100,-100,0,0,100,0.00,40.00,0,-999,0,0.00
2013-3-21,42,23,15,-100,-100,-100,0,0,100,0.00,40.00,0,-999,0,0.00
2013-3-22,43,30,25,-100,-100,-100,0,0,100,0.00,40.00,0,-999,0,0.00
2013-3-23,68,46,32,-100,-100,-100,0,0,100,0.00,40.00,0,-999,0,0.00
2013-3-24,41,33,27,-100,-100,-100,0,0,100,0.00,40.00,0,-999,0,0.00
2013-3-25,34,28,26,-100,-100,-100,0,0,100,0.00,40.00,0,-999,0,0.00
2013-3-26,46,30,24,-100,-100,-100,0,0,100,0.00,40.00,0,-999,0,0.00
2013-3-27,55,31,18,-100,-100,-100,0,0,100,0.00,40.00,0,-999,0,0.00
2013-3-28,67,41,26,-100,-100,-100,0,0,100,0.00,40.00,0,-999,0,0.00
2013-3-29,55,45,36,-100,-100,-100,0,0,100,0.00,40.00,0,-999,0,0.00
2013-3-30,63,45,32,-100,-100,-100,0,0,100,0.00,40.00,0,-999,0,0.00
2013-3-31,72,55,44,-100,-100,-100,0,0,100,0.00,40.00,0,-999,0,0.00
2013-4-1,57,42,32,-100,-100,-100,0,0,100,0.00,40.00,0,-999,0,0.00
2013-4-2,59,39,24,-100,-100,-100,0,0,100,0.00,40.00,0,-999,0,0.00
2013-4-3,59,41,23,-100,-100,-100,0,0,100,0.00,40.00,0,-999,0,0.00
2013-4-4,68,44,25,-100,-100,-100,0,0,100,0.00,40.00,0,-999,0,0.00
2013-4-5,73,50,31,-100,-100,-100,0,0,100,0.00,40.00,0,-999,0,0.00
2013-4-6,72,58,37,-100,-100,-100,0,0,100,0.00,40.00,0,-999,0,0.00
2013-4-7,82,65,55,-100,-100,-100,0,0,100,0.00,40.00,0,-999,0,0.00
2013-4-8,74,62,56,-100,-100,-100,0,0,100,0.00,40.00,0,-999,0,0.00
2013-4-9,84,67,57,-100,-100,-100,0,0,100,0.00,40.00,0,-999,0,0.00
2013-4-10,80,70,64,-100,-100,-100,0,0,100,0.00,40.00,0,-999,0,0.00
2013-4-11,62,52,38,-100,-100,-100,0,0,100,0.00,40.00,0,-999,0,0.00
2013-4-12,58,41,32,-100,-100,-100,0,0,100,0.00,40.00,0,-999,0,0.00
2013-4-13,67,47,29,-100,-100,-100,0,0,100,0.00,40.00,0,-999,0,0.00
2013-4-14,79,54,37,-100,-100,-100,0,0,100,0.00,40.00,0,-999,0,0.00
2013-4-15,74,60,49,-100,-100,-100,0,0,100,0.00,40.00,0,-999,0,0.00
2013-4-16,64,56,51,-100,-100,-100,0,0,100,0.00,40.00,0,-999,0,0.00
2013-4-17,82,69,50,-100,-100,-100,0,0,100,0.00,40.00,0,-999,0,0.00
2013-4-18,74,65,40,-100,-100,-100,0,0,100,0.00,40.00,0,-999,0,0.00
2013-4-19,50,42,37,-100,-100,-100,0,0,100,0.00,40.00,0,-999,0,0.00
2013-4-20,63,46,31,-100,-100,-100,0,0,100,0.00,40.00,0,-999,0,0.00
2013-4-21,72,47,31,-100,-100,-100,0,0,100,0.00,40.00,0,-999,0,0.00
2013-4-22,78,55,36,-100,-100,-100,0,0,100,0.00,40.00,0,-999,0,0.00
2013-4-23,66,56,41,-100,-100,-100,0,0,100,0.00,40.00,0,-999,0,0.00
2013-4-24,49,41,35,-100,-100,-100,0,0,100,0.00,40.00,0,-999,0,0.00
2013-4-25,67,46,31,-100,-100,-100,0,0,100,0.00,40.00,0,-999,0,0.00
2013-4-26,60,49,38,-100,-100,-100,0,0,100,0.00,40.00,0,-999,0,0.00
2013-4-27,58,50,46,-100,-100,-100,0,0,100,0.00,40.00,0,-999,0,0.00
2013-4-28,57,53,51,-100,-100,-100,0,0,100,0.00,40.00,0,-999,0,0.00
2013-4-29,78,61,43,-100,-100,-100,0,0,100,0.00,40.00,0,-999,0,0.00
2013-4-30,88,71,51,-100,-100,-100,0,0,100,0.00,40.00,0,-999,0,0.00
2013-5-1,80,66,52,-100,-100,-100,0,0,100,0.00,40.00,0,-999,0,0.00
2013-5-2,81,65,55,-100,-100,-100,0,0,100,0.00,40.00,0,-999,0,0.00
2013-5-3,58,50,41,-100,-100,-100,0,0,100,0.00,40.00,0,-999,0,0.00
2013-5-4,48,42,39,-100,-100,-100,0,0,100,0.00,40.00,0,-999,0,0.00
2013-5-5,58,52,43,-100,-100,-100,0,0,100,0.00,40.00,0,-999,0,0.00
2013-5-6,63,54,49,-100,-100,-100,0,0,100,0.00,40.00,0,-999,0,0.00
2013-5-7,72,57,51,-100,-100,-100,0,0,100,0.00,40.00,0,-999,0,0.00
2013-5-8,84,64,52,-100,-100,-100,0,0,100,0.00,40.00,0,-999,0,0.00
2013-5-9,79,67,58,-100,-100,-100,0,0,100,0.00,40.00,0,-999,0,0.00
2013-5-10,77,64,56,-100,-100,-100,0,0,100,0.00,40.00,0,-999,0,0.00
2013-5-11,70,58,49,-100,-100,-100,0,0,100,0.00,40.00,0,-999,0,0.00
2013-5-12,65,51,41,-100,-100,-100,0,0,100,0.00,40.00,0,-999,0,0.00
2013-5-13,75,52,37,-100,-100,-100,0,0,100,0.00,40.00,0,-999,0,0.00
2013-5-14,88,66,48,-100,-100,-100,0,0,100,0.00,40.00,0,-999,0,0.00
2013-5-15,88,72,64,-100,-100,-100,0,0,100,0.00,40.00,0,-999,0,0.00
2013-5-16,84,69,63,-100,-100,-100,0,0,100,0.00,40.00,0,-999,0,0.00
2013-5-17,76,66,60,-100,-100,-100,0,0,100,0.00,40.00,0,-999,0,0.00
2013-5-18,77,68,60,-100,-100,-100,0,0,100,0.00,40.00,0,-999,0,0.00
2013-5-19,87,72,62,-100,-100,-100,0,0,100,0.00,40.00,0,-999,0,0.00
2013-5-20,81,73,68,-100,-100,-100,0,0,100,0.00,40.00,0,-999,0,0.00
2013-5-21,82,67,61,-100,-100,-100,0,0,100,0.00,40.00,0,-999,0,0.00
2013-5-22,81,67,60,-100,-100,-100,0,0,100,0.00,40.00,0,-999,0,0.00
2013-5-23,66,59,50,-100,-100,-100,0,0,100,0.00,40.00,0,-999,0,0.00
2013-5-24,73,56,40,-100,-100,-100,0,0,100,0.00,40.00,0,-999,0,0.00
2013-5-25,75,57,44,-100,-100,-100,0,0,100,0.00,40.00,0,-999,0,0.00
2013-5-26,82,65,54,-100,-100,-100,0,0,100,0.00,40.00,0,-999,0,0.00
2013-5-27,84,74,59,-100,-100,-100,0,0,100,0.00,40.00,0,-999,0,0.00
2013-5-28,82,71,60,-100,-100,-100,0,0,100,0.00,40.00,0,-999,0,0.00
2013-5-29,85,74,62,-100,-100,-100,0,0,100,0.00,40.00,0,-999,0,0.00
2013-5-30,84,74,66,-100,-100,-100,0,0,100,0.00,40.00,0,-999,0,0.00
2013-5-31,77,70,62,-100,-100,-100,0,0,100,0.00,40.00,0,-999,0,0.00
2013-6-1,70,64,61,-100,-100,-100,0,0,100,0.00,40.00,0,-999,0,0.00
2013-6-2,68,62,59,-100,-100,-100,0,0,100,0.00,40.00,0,-999,0,0.00
2013-6-3,72,60,56,-100,-100,-100,0,0,100,0.00,40.00,0,-999,0,0.00
2013-6-4,81,63,51,-100,-100,-100,0,0,100,0.00,40.00,0,-999,0,0.00
2013-6-5,84,68,58,-100,-100,-100,0,0,100,0.00,40.00,0,-999,0,0.00
2013-6-6,82,71,65,-100,-100,-100,0,0,100,0.00,40.00,0,-999,0,0.00
2013-6-7,77,66,62,-100,-100,-100,0,0,100,0.00,40.00,0,-999,0,0.00
2013-6-8,80,65,57,-100,-100,-100,0,0,100,0.00,40.00,0,-999,0,0.00
2013-6-9,79,68,61,-100,-100,-100,0,0,100,0.00,40.00,0,-999,0,0.00
2013-6-10,77,67,59,-100,-100,-100,0,0,100,0.00,40.00,0,-999,0,0.00
2013-6-11,87,72,59,-100,-100,-100,0,0,100,0.00,40.00,0,-999,0,0.00
2013-6-12,91,80,71,-100,-100,-100,0,0,100,0.00,40.00,0,-999,0,0.00
2013-6-13,82,75,69,-100,-100,-100,0,0,100,0.00,40.00,0,-999,0,0.00
2013-6-14,84,68,58,-100,-100,-100,0,0,100,0.00,40.00,0,-999,0,0.00
2013-6-15,87,73,61,-100,-100,-100,0,0,100,0.00,40.00,0,-999,0,0.00
2013-6-16,79,72,67,-100,-100,-100,0,0,100,0.00,40.00,0,-999,0,0.00
2013-6-17,84,69,63,-100,-100,-100,0,0,100,0.00,40.00,0,-999,0,0.00
2013-6-18,86,67,61,-100,-100,-100,0,0,100,0.00,40.00,0,-999,0,0.00
2013-6-19,86,75,62,-100,-100,-100,0,0,100,0.00,40.00,0,-999,0,0.00
2013-6-20,84,70,64,-100,-100,-100,0,0,100,0.00,40.00,0,-999,0,0.00
2013-6-22,87,77,66,-100,-100,-100,0,0,100,0.00,40.00,0,-999,0,0.00
2013-6-23,79,70,65,-100,-100,-100,0,0,100,0.00,40.00,0,-999,0,0.00
2013-6-24,88,77,65,-100,-100,-100,0,0,100,0.00,40.00,0,-999,0,0.00
2013-6-25,91,78,70,-100,-100,-100,0,0,100,0.00,40.00,0,-999,0,0.00
2013-6-26,87,76,70,-100,-100,-100,0,0,100,0.00,40.00,0,-999,0,0.00
2013-6-27,91,81,70,-100,-100,-100,0,0,100,0.00,40.00,0,-999,0,0.00
2013-6-28,88,76,72,-100,-100,-100,0,0,100,0.00,40.00,0,-999,0,0.00
2013-6-29,84,72,63,-100,-100,-100,0,0,100,0.00,40.00,0,-999,0,0.00
2013-6-30,77,67,62,-100,-100,-100,0,0,100,0.00,40.00,0,-999,0,0.00
2013-7-1,67,64,60,-100,-100,-100,0,0,100,0.00,40.00,0,-999,0,0.00
2013-7-2,68,64,62,-100,-100,-100,0,0,100,0.00,40.00,0,-999,0,0.00
2013-7-3,80,67,60,-100,-100,-100,0,0,100,0.00,40.00,0,-999,0,0.00
2013-7-4,82,68,58,-100,-100,-100,0,0,100,0.00,40.00,0,-999,0,0.00
2013-7-5,78,70,62,-100,-100,-100,0,0,100,0.00,40.00,0,-999,0,0.00
2013-7-6,86,72,67,-100,-100,-100,0,0,100,0.00,40.00,0,-999,0,0.00
2013-7-7,89,73,60,-100,-100,-100,0,0,100,0.00,40.00,0,-999,0,0.00
2013-7-8,89,74,67,-100,-100,-100,0,0,100,0.00,40.00,0,-999,0,0.00
2013-7-9,91,78,72,-100,-100,-100,0,0,100,0.00,40.00,0,-999,0,0.00
2013-7-10,84,76,72,-100,-100,-100,0,0,100,0.00,40.00,0,-999,0,0.00
2013-7-11,84,74,64,-100,-100,-100,0,0,100,0.00,40.00,0,-999,0,0.00
2013-7-12,86,72,60,-100,-100,-100,0,0,100,0.00,40.00,0,-999,0,0.00
2013-7-13,86,73,61,-100,-100,-100,0,0,100,0.00,40.00,0,-999,0,0.00
2013-7-14,87,71,61,-100,-100,-100,0,0,100,0.00,40.00,0,-999,0,0.00
2013-7-15,83,72,68,-100,-100,-100,0,0,100,0.00,40.00,0,-999,0,0.00
2013-7-16,89,77,68,-100,-100,-100,0,0,100,0.00,40.00,0,-999,0,0.00
2013-7-17,93,78,70,-100,-100,-100,0,0,100,0.00,40.00,0,-999,0,0.00
2013-7-18,92,80,72,-100,-100,-100,0,0,100,0.00,40.00,0,-999,0,0.00
2013-7-19,92,80,71,-100,-100,-100,0,0,100,0.00,40.00,0,-999,0,0.00
2013-7-20,92,79,67,-100,-100,-100,0,0,100,0.00,40.00,0,-999,0,0.00
2013-7-21,82,73,66,-100,-100,-100,0,0,100,0.00,40.00,0,-999,0,0.00
2013-7-22,87,78,68,-100,-100,-100,0,0,100,0.00,40.00,0,-999,0,0.00
2013-7-23,89,77,70,-100,-100,-100,0,0,100,0.00,40.00,0,-999,0,0.00
2013-7-24,82,72,64,-100,-100,-100,0,0,100,0.00,40.00,0,-999,0,0.00
2013-7-25,81,71,58,-100,-100,-100,0,0,100,0.00,40.00,0,-999,0,0.00
2013-7-26,77,66,58,-100,-100,-100,0,0,100,0.00,40.00,0,-999,0,0.00
2013-7-27,80,69,60,-100,-100,-100,0,0,100,0.00,40.00,0,-999,0,0.00
2013-7-28,79,62,53,-100,-100,-100,0,0,100,0.00,40.00,0,-999,0,0.00
2013-7-29,79,65,58,-100,-100,-100,0,0,100,0.00,40.00,0,-999,0,0.00
2013-7-30,67,66,63,-100,-100,-100,0,0,100,0.00,40.00,0,-999,0,0.00
2013-7-31,85,74,66,-100,-100,-100,0,0,100,0.00,40.00,0,-999,0,0.00
2013-8-1,86,72,65,-100,-100,-100,0,0,100,0.00,40.00,0,-999,0,0.00
2013-8-2,86,70,62,-100,-100,-100,0,0,100,0.00,40.00,0,-999,0,0.00
2013-8-3,84,73,65,-100,-100,-100,0,0,100,0.00,40.00,0,-999,0,0.00
2013-8-4,84,70,61,-100,-100,-100,0,0,100,0.00,40.00,0,-999,0,0.00
2013-8-5,73,66,60,-100,-100,-100,0,0,100,0.00,40.00,0,-999,0,0.00
2013-8-6,84,70,65,-100,-100,-100,0,0,100,0.00,40.00,0,-999,0,0.00
2013-8-7,85,73,67,-100,-100,-100,0,0,100,0.00,40.00,0,-999,0,0.00
2013-8-8,78,72,65,-100,-100,-100,0,0,100,0.00,40.00,0,-999,0,0.00
2013-8-9,81,72,69,-100,-100,-100,0,0,100,0.00,40.00,0,-999,0,0.00
2013-8-10,86,73,67,-100,-100,-100,0,0,100,0.00,40.00,0,-999,0,0.00
2013-8-11,87,72,63,-100,-100,-100,0,0,100,0.00,40.00,0,-999,0,0.00
2013-8-12,83,71,65,-100,-100,-100,0,0,100,0.00,40.00,0,-999,0,0.00
2013-8-13,78,70,65,-100,-100,-100,0,0,100,0.00,40.00,0,-999,0,0.00
2013-8-14,75,62,52,-100,-100,-100,0,0,100,0.00,40.00,0,-999,0,0.00
2013-8-15,77,60,53,-100,-100,-100,0,0,100,0.00,40.00,0,-999,0,0.00
2013-8-16,75,65,53,-100,-100,-100,0,0,100,0.00,40.00,0,-999,0,0.00
2013-8-17,74,67,62,-100,-100,-100,0,0,100,0.00,40.00,0,-999,0,0.00
2013-8-18,85,68,63,-100,-100,-100,0,0,100,0.00,40.00,0,-999,0,0.00
2013-8-19,85,66,60,-100,-100,-100,0,0,100,0.00,40.00,0,-999,0,0.00
2013-8-20,81,67,63,-100,-100,-100,0,0,100,0.00,40.00,0,-999,0,0.00
2013-8-21,84,70,64,-100,-100,-100,0,0,100,0.00,40.00,0,-999,0,0.00
2013-8-22,92,73,65,-100,-100,-100,0,0,100,0.00,40.00,0,-999,0,0.00
2013-8-23,87,73,69,-100,-100,-100,0,0,100,0.00,40.00,0,-999,0,0.00
2013-8-24,89,73,64,-100,-100,-100,0,0,100,0.00,40.00,0,-999,0,0.00
2013-8-25,94,71,62,-100,-100,-100,0,0,100,0.00,40.00,0,-999,0,0.00
2013-8-26,89,73,67,-100,-100,-100,0,0,100,0.00,40.00,0,-999,0,0.00
2013-8-27,87,75,70,-100,-100,-100,0,0,100,0.00,40.00,0,-999,0,0.00
2013-8-28,93,87,75,-100,-100,-100,0,0,100,0.00,40.00,0,-999,0,0.00
2013-8-29,94,79,72,-100,-100,-100,0,0,100,0.00,40.00,0,-999,0,0.00
2013-8-30,95,78,70,-100,-100,-100,0,0,100,0.00,40.00,0,-999,0,0.00
2013-8-31,96,79,70,-100,-100,-100,0,0,100,0.00,40.00,0,-999,0,0.00
2013-9-1,88,77,69,-100,-100,-100,0,0,100,0.00,40.00,0,-999,0,0.00
2013-9-2,88,72,67,-100,-100,-100,0,0,100,0.00,40.00,0,-999,0,0.00
2013-9-3,79,68,63,-100,-100,-100,0,0,100,0.00,40.00,0,-999,0,0.00
2013-9-4,79,66,58,-100,-100,-100,0,0,100,0.00,40.00,0,-999,0,0.00
2013-9-5,84,65,57,-100,-100,-100,0,0,100,0.00,40.00,0,-999,0,0.00
2013-9-6,65,62,60,-100,-100,-100,0,0,100,0.00,40.00,0,-999,0,0.00
2013-9-10,94,86,73,-100,-100,-100,0,0,100,0.00,40.00,0,-999,0,0.00
2013-9-11,96,76,69,-100,-100,-100,0,0,100,0.00,40.00,0,-999,0,0.00
2013-9-12,91,76,69,-100,-100,-100,0,0,100,0.00,40.00,0,-999,0,0.00
2013-9-13,79,63,56,-100,-100,-100,0,0,100,0.00,40.00,0,-999,0,0.00
2013-9-14,70,55,47,-100,-100,-100,0,0,100,0.00,40.00,0,-999,0,0.00
2013-9-15,75,54,47,-100,-100,-100,0,0,100,0.00,40.00,0,-999,0,0.00
2013-9-16,74,66,60,-100,-100,-100,0,0,100,0.00,40.00,0,-999,0,0.00
2013-9-17,79,62,54,-100,-100,-100,0,0,100,0.00,40.00,0,-999,0,0.00
2013-9-18,70,65,62,-100,-100,-100,0,0,100,0.00,40.00,0,-999,0,0.00
2013-9-19,89,75,67,-100,-100,-100,0,0,100,0.00,40.00,0,-999,0,0.00
2013-9-20,72,69,67,-100,-100,-100,0,0,100,0.00,40.00,0,-999,0,0.00
2013-9-21,74,59,53,-100,-100,-100,0,0,100,0.00,40.00,0,-999,0,0.00
2013-9-22,76,59,49,-100,-100,-100,0,0,100,0.00,40.00,0,-999,0,0.00
2013-9-23,72,59,48,-100,-100,-100,0,0,100,0.00,40.00,0,-999,0,0.00
2013-9-24,80,66,52,-100,-100,-100,0,0,100,0.00,40.00,0,-999,0,0.00
2013-9-25,79,66,60,-100,-100,-100,0,0,100,0.00,40.00,0,-999,0,0.00
2013-9-26,86,66,58,-100,-100,-100,0,0,100,0.00,40.00,0,-999,0,0.00
2013-9-27,84,63,53,-100,-100,-100,0,0,100,0.00,40.00,0,-999,0,0.00
2013-9-28,81,63,56,-100,-100,-100,0,0,100,0.00,40.00,0,-999,0,0.00
2013-9-29,65,63,60,-100,-100,-100,0,0,100,0.00,40.00,0,-999,0,0.00
2013-9-30,71,64,60,-100,-100,-100,0,0,100,0.00,40.00,0,-999,0,0.00
2013-10-1,67,67,67,-100,-100,-100,0,0,100,0.00,40.00,0,-999,0,0.00
2013-10-2,79,68,65,-100,-100,-100,0,0,100,0.00,40.00,0,-999,0,0.00
2013-10-3,89,70,65,-100,-100,-100,0,0,100,0.00,40.00,0,-999,0,0.00
2013-10-4,87,72,65,-100,-100,-100,0,0,100,0.00,40.00,0,-999,0,0.00
2013-10-5,77,68,64,-100,-100,-100,0,0,100,0.00,40.00,0,-999,0,0.00
2013-10-6,62,54,48,-100,-100,-100,0,0,100,0.00,40.00,0,-999,0,0.00
2013-10-7,65,50,47,-100,-100,-100,0,0,100,0.00,40.00,0,-999,0,0.00
2013-10-8,62,50,44,-100,-100,-100,0,0,100,0.00,40.00,0,-999,0,0.00
2013-10-9,49,47,46,-100,-100,-100,0,0,100,0.00,40.00,0,-999,0,0.00
2013-10-11,82,69,58,-100,-100,-100,0,0,100,0.00,40.00,0,-999,0,0.00
2013-10-12,66,60,55,-100,-100,-100,0,0,100,0.00,40.00,0,-999,0,0.00
2013-10-13,70,55,49,-100,-100,-100,0,0,100,0.00,40.00,0,-999,0,0.00
2013-10-14,70,52,44,-100,-100,-100,0,0,100,0.00,40.00,0,-999,0,0.00
2013-10-15,64,60,55,-100,-100,-100,0,0,100,0.00,40.00,0,-999,0,0.00
2013-10-16,65,54,48,-100,-100,-100,0,0,100,0.00,40.00,0,-999,0,0.00
2013-10-17,60,48,44,-100,-100,-100,0,0,100,0.00,40.00,0,-999,0,0.00
2013-10-18,65,51,43,-100,-100,-100,0,0,100,0.00,40.00,0,-999,0,0.00
2013-10-19,53,43,40,-100,-100,-100,0,0,100,0.00,40.00,0,-999,0,0.00
2013-10-20,63,49,37,-100,-100,-100,0,0,100,0.00,40.00,0,-999,0,0.00
2013-10-21,65,48,41,-100,-100,-100,0,0,100,0.00,40.00,0,-999,0,0.00
2013-10-22,61,47,31,-100,-100,-100,0,0,100,0.00,40.00,0,-999,0,0.00
2013-10-23,53,41,36,-100,-100,-100,0,0,100,0.00,40.00,0,-999,0,0.00
2013-10-24,44,37,32,-100,-100,-100,0,0,100,0.00,40.00,0,-999,0,0.00
2013-10-25,56,34,25,-100,-100,-100,0,0,100,0.00,40.00,0,-999,0,0.00
2013-10-26,68,46,29,-100,-100,-100,0,0,100,0.00,40.00,0,-999,0,0.00
2013-10-27,50,37,32,-100,-100,-100,0,0,100,0.00,40.00,0,-999,0,0.00
2013-10-28,72,47,32,-100,-100,-100,0,0,100,0.00,40.00,0,-999,0,0.00
2013-10-29,53,49,41,-100,-100,-100,0,0,100,0.00,40.00,0,-999,0,0.00
2013-10-30,71,64,53,-100,-100,-100,0,0,100,0.00,40.00,0,-999,0,0.00
2013-10-31,62,59,51,-100,-100,-100,0,0,100,0.00,40.00,0,-999,0,0.00
2013-11-1,58,50,44,-100,-100,-100,0,0,100,0.00,40.00,0,-999,0,0.00
2013-11-2,56,45,39,-100,-100,-100,0,0,100,0.00,40.00,0,-999,0,0.00
2013-11-3,61,41,31,-100,-100,-100,0,0,100,0.00,40.00,0,-999,0,0.00
2013-11-4,56,47,37,-100,-100,-100,0,0,100,0.00,40.00,0,-999,0,0.00
2013-11-5,62,51,46,-100,-100,-100,0,0,100,0.00,40.00,0,-999,0,0.00
2013-11-6,58,49,37,-100,-100,-100,0,0,100,0.00,40.00,0,-999,0,0.00
2013-11-7,49,37,31,-100,-100,-100,0,0,100,0.00,40.00,0,-999,0,0.00
2013-11-8,53,37,28,-100,-100,-100,0,0,100,0.00,40.00,0,-999,0,0.00
2013-11-9,60,46,37,-100,-100,-100,0,0,100,0.00,40.00,0,-999,0,0.00
2013-11-10,56,42,34,-100,-100,-100,0,0,100,0.00,40.00,0,-999,0,0.00
2013-11-11,62,44,32,-100,-100,-100,0,0,100,0.00,40.00,0,-999,0,0.00
2013-11-12,34,27,22,-100,-100,-100,0,0,100,0.00,40.00,0,-999,0,0.00
2013-11-13,44,24,15,-100,-100,-100,0,0,100,0.00,40.00,0,-999,0,0.00
2013-11-14,53,43,32,-100,-100,-100,0,0,100,0.00,40.00,0,-999,0,0.00
2013-11-15,49,44,37,-100,-100,-100,0,0,100,0.00,40.00,0,-999,0,0.00
2013-11-16,64,58,44,-100,-100,-100,0,0,100,0.00,40.00,0,-999,0,0.00
2013-11-17,75,61,51,-100,-100,-100,0,0,100,0.00,40.00,0,-999,0,0.00
2013-11-18,49,42,31,-100,-100,-100,0,0,100,0.00,40.00,0,-999,0,0.00
2013-11-19,50,40,31,-100,-100,-100,0,0,100,0.00,40.00,0,-999,0,0.00
2013-11-20,48,42,29,-100,-100,-100,0,0,100,0.00,40.00,0,-999,0,0.00
2013-11-21,48,47,44,-100,-100,-100,0,0,100,0.00,40.00,0,-999,0,0.00
2013-11-22,48,43,34,-100,-100,-100,0,0,100,0.00,40.00,0,-999,0,0.00
2013-11-23,41,28,17,-100,-100,-100,0,0,100,0.00,40.00,0,-999,0,0.00
2013-11-24,24,19,10,-100,-100,-100,0,0,100,0.00,40.00,0,-999,0,0.00
2013-11-25,31,25,21,-100,-100,-100,0,0,100,0.00,40.00,0,-999,0,0.00
2013-11-26,36,30,24,-100,-100,-100,0,0,100,0.00,40.00,0,-999,0,0.00
2013-11-27,27,16,12,-100,-100,-100,0,0,100,0.00,40.00,0,-999,0,0.00
2013-11-28,46,19,11,-100,-100,-100,0,0,100,0.00,40.00,0,-999,0,0.00
2013-11-29,48,28,18,-100,-100,-100,0,0,100,0.00,40.00,0,-999,0,0.00
2013-11-30,57,39,22,-100,-100,-100,0,0,100,0.00,40.00,0,-999,0,0.00
2013-12-1,58,41,32,-100,-100,-100,0,0,100,0.00,40.00,0,-999,0,0.00
2013-12-2,59,42,31,-100,-100,-100,0,0,100,0.00,40.00,0,-999,0,0.00
2013-12-3,58,45,36,-100,-100,-100,0,0,100,0.00,40.00,0,-999,0,0.00
2013-12-4,67,58,39,-100,-100,-100,0,0,100,0.00,40.00,0,-999,0,0.00
2013-12-5,48,30,17,-100,-100,-100,0,0,100,0.00,40.00,0,-999,0,0.00
2013-12-6,17,16,12,-100,-100,-100,0,0,100,0.00,40.00,0,-999,0,0.00
2013-12-7,20,12,5,-100,-100,-100,0,0,100,0.00,40.00,0,-999,0,0.00
2013-12-8,24,20,13,-100,-100,-100,0,0,100,0.00,40.00,0,-999,0,0.00
2013-12-9,27,22,16,-100,-100,-100,0,0,100,0.00,40.00,0,-999,0,0.00
2013-12-10,32,18,13,-100,-100,-100,0,0,100,0.00,40.00,0,-999,0,0.00
2013-12-11,32,21,6,-100,-100,-100,0,0,100,0.00,40.00,0,-999,0,0.00
2013-12-12,26,9,-2,-100,-100,-100,0,0,100,0.00,40.00,0,-999,0,0.00
2013-12-13,35,30,27,-100,-100,-100,0,0,100,0.00,40.00,0,-999,0,0.00
2013-12-14,31,27,24,-100,-100,-100,0,0,100,0.00,40.00,0,-999,0,0.00
2013-12-15,27,23,20,-100,-100,-100,0,0,100,0.00,40.00,0,-999,0,0.00
2013-12-16,43,29,25,-100,-100,-100,0,0,100,0.00,40.00,0,-999,0,0.00
2013-12-17,36,27,22,-100,-100,-100,0,0,100,0.00,40.00,0,-999,0,0.00
2013-12-18,49,40,17,-100,-100,-100,0,0,100,0.00,40.00,0,-999,0,0.00
2013-12-19,55,48,39,-100,-100,-100,0,0,100,0.00,40.00,0,-999,0,0.00
2013-12-20,58,56,53,-100,-100,-100,0,0,100,0.00,40.00,0,-999,0,0.00
2013-12-21,38,34,31,-100,-100,-100,0,0,100,0.00,40.00,0,-999,0,0.00
2013-12-22,36,31,26,-100,-100,-100,0,0,100,0.00,40.00,0,-999,0,0.00
2013-12-23,26,22,15,-100,-100,-100,0,0,100,0.00,40.00,0,-999,0,0.00
2013-12-24,20,14,5,-100,-100,-100,0,0,100,0.00,40.00,0,-999,0,0.00
2013-12-25,32,23,14,-100,-100,-100,0,0,100,0.00,40.00,0,-999,0,0.00
2013-12-26,49,36,25,-100,-100,-100,0,0,100,0.00,40.00,0,-999,0,0.00
2013-12-27,48,32,24,-100,-100,-100,0,0,100,0.00,40.00,0,-999,0,0.00
2013-12-28,49,36,31,-100,-100,-100,0,0,100,0.00,40.00,0,-999,0,0.00
2013-12-29,37,28,17,-100,-100,-100,0,0,100,0.00,40.00,0,-999,0,0.00
2013-12-30,24,14,8,-100,-100,-100,0,0,100,0.00,40.00,0,-999,0,0.00
2013-12-31,32,29,22,-100,-100,-100,0,0,100,0.00,40.00,0,-999,0,0.00
2014-1-1,43,34,28,-100,-100,-100,0,0,100,0.00,40.00,0,-999,0,0.00
2014-1-2,31,18,8,-100,-100,-100,0,0,100,0.00,40.00,0,-999,0,0.00